Location: *
(49.9853°N, 3.5569°E)
Time: 03:19:48
(UTC+00:00)

Cosmos 405 Rocket - Pass Details

Date: 16 December 2019
Orbit: 490 x 554 km, 81.3° (Epoch: 23 January)

Event Time Altitude Azimuth Distance (km) Brightness Sun altitude
Rises 18:08:10 0° 343° (NNW) 2,583 6.3 -21.8°
Reaches altitude 10° 18:10:19 10° 338° (NNW) 1,699 5.4 -22.2°
Maximum altitude 18:13:55 50° 263° (W) 639 3.5 -22.8°
Drops below altitude 10° 18:17:32 10° 187° (S) 1,703 5.5 -23.3°
Sets 18:19:42 0° 182° (S) 2,590 6.4 -23.7°
